TimeMST,TemperatureF,Dew PointF,Humidity,Sea Level PressureIn,VisibilityMPH,Wind Direction,Wind SpeedMPH,Gust SpeedMPH,PrecipitationIn,Events,Conditions,WindDirDegrees,DateUTC
12:54 AM,45.0,10.0,24,30.04,10.0,NE,8.1,-,N/A,,Clear,50,2012-11-14 07:54:00
1:54 AM,42.1,10.0,27,30.05,10.0,NE,5.8,-,N/A,,Clear,40,2012-11-14 08:54:00
2:54 AM,42.1,10.0,27,30.05,10.0,ENE,10.4,-,N/A,,Clear,70,2012-11-14 09:54:00
3:54 AM,41.0,10.0,28,30.04,10.0,SW,3.5,-,N/A,,Clear,220,2012-11-14 10:54:00
4:54 AM,39.9,10.9,31,30.05,10.0,NE,4.6,-,N/A,,Clear,40,2012-11-14 11:54:00
5:54 AM,42.1,10.9,28,30.07,10.0,NE,8.1,-,N/A,,Clear,40,2012-11-14 12:54:00
6:54 AM,39.0,10.0,30,30.10,10.0,ESE,4.6,-,N/A,,Clear,110,2012-11-14 13:54:00
7:54 AM,43.0,12.0,28,30.11,10.0,South,3.5,-,N/A,,Clear,170,2012-11-14 14:54:00
8:54 AM,55.9,10.0,16,30.11,10.0,Calm,Calm,-,N/A,,Clear,0,2012-11-14 15:54:00
9:54 AM,64.9,9.0,11,30.09,10.0,Calm,Calm,-,N/A,,Clear,0,2012-11-14 16:54:00
10:54 AM,71.1,8.1,9,30.06,10.0,Calm,Calm,-,N/A,,Clear,0,2012-11-14 17:54:00
11:54 AM,75.0,8.1,8,30.02,10.0,Variable,3.5,-,N/A,,Clear,0,2012-11-14 18:54:00
12:54 PM,77.0,8.1,7,29.99,10.0,West,3.5,-,N/A,,Clear,270,2012-11-14 19:54:00
1:54 PM,78.1,7.0,7,29.97,10.0,WSW,5.8,-,N/A,,Clear,250,2012-11-14 20:54:00
2:54 PM,78.1,12.0,8,29.96,10.0,Calm,Calm,-,N/A,,Clear,0,2012-11-14 21:54:00
3:54 PM,78.1,12.0,8,29.95,10.0,South,5.8,-,N/A,,Clear,190,2012-11-14 22:54:00
4:54 PM,73.9,16.0,11,29.97,10.0,SW,6.9,-,N/A,,Clear,220,2012-11-14 23:54:00
5:54 PM,70.0,17.1,13,29.99,10.0,SW,4.6,-,N/A,,Clear,230,2012-11-15 00:54:00
6:54 PM,57.9,18.0,21,30.03,10.0,East,5.8,-,N/A,,Clear,90,2012-11-15 01:54:00
7:54 PM,55.9,19.0,24,30.04,10.0,East,4.6,-,N/A,,Clear,90,2012-11-15 02:54:00
8:54 PM,55.0,19.9,25,30.03,10.0,East,5.8,-,N/A,,Clear,90,2012-11-15 03:54:00
9:54 PM,53.1,21.0,29,30.03,10.0,East,3.5,-,N/A,,Clear,100,2012-11-15 04:54:00
10:54 PM,52.0,21.0,30,30.02,10.0,Calm,Calm,-,N/A,,Clear,0,2012-11-15 05:54:00
11:54 PM,50.0,21.0,32,30.01,10.0,Calm,Calm,-,N/A,,Clear,0,2012-11-15 06:54:00